Location: Zlin
(49.2330°N, 17.6670°E)
Time: 04:37:12
(UTC+01:00)

SEEDS - Visible Passes

Search period start: 27 February 2024 00:00
Search period end: 08 March 2024 00:00
Orbit: 560 x 567 km, 97.7° (Epoch: 26 February)

Date Brightness Start Highest point End Pass type
(mag) Time Alt. Az. Time Alt. Az. Time Alt. Az.
27 Feb ? 02:42:02 10° NE 02:42:35 12° ENE 02:42:35 12° ENE visible
27 Feb ? 04:15:53 10° N 04:18:35 37° NNW 04:18:35 37° NNW visible
28 Feb ? 02:41:50 10° NE 02:42:32 12° ENE 02:42:32 12° ENE visible
28 Feb ? 04:15:40 10° N 04:18:31 40° NNW 04:18:31 40° NNW visible
29 Feb ? 02:41:36 10° NE 02:42:27 13° ENE 02:42:27 13° ENE visible
29 Feb ? 04:15:25 10° N 04:18:27 44° NNW 04:18:27 44° NNW visible
01 Mar ? 02:41:22 10° NE 02:42:21 13° ENE 02:42:21 13° ENE visible
01 Mar ? 04:15:09 10° N 04:18:21 47° NNW 04:18:21 47° NNW visible
02 Mar ? 02:41:05 10° NE 02:42:14 14° ENE 02:42:14 14° ENE visible
02 Mar ? 04:14:52 10° N 04:18:14 50° NNW 04:18:14 50° NNW visible
03 Mar ? 02:40:47 10° NE 02:42:06 14° ENE 02:42:06 14° ENE visible
03 Mar ? 04:14:33 10° N 04:18:05 54° NW 04:18:05 54° NW visible
04 Mar ? 02:40:29 10° NE 02:41:56 14° ENE 02:41:56 14° ENE visible
04 Mar ? 04:14:13 10° N 04:17:56 57° NW 04:17:56 57° NW visible
05 Mar ? 02:40:09 10° NE 02:41:45 14° ENE 02:41:45 14° ENE visible
05 Mar ? 04:13:52 10° N 04:17:44 59° WNW 04:17:44 59° WNW visible
06 Mar ? 02:39:48 10° NE 02:41:32 14° E 02:41:32 14° E visible
06 Mar ? 04:13:29 10° N 04:17:29 60° WNW 04:17:32 60° WNW visible
07 Mar ? 02:39:26 10° NE 02:41:20 14° E 02:41:20 14° E visible
07 Mar ? 04:13:05 10° N 04:17:06 60° WNW 04:17:19 59° W visible
